DW5978 Whyalla SA AU current weather conditions

sailwx.info

Wind from 127 at 5 knots gusting 11

Air temperature 17.8° C
Dewpoint 14.5° C

Last reported at 2014-Oct-31 12:40 UTC.
Time now 2014-Oct-31 13:33 UTC

Location: S 33°01' E 137°32'.
View on Google Maps.

See reports from other nearby stations

  
Tides and Currents Weather Stations Pressure Air Temp Water Temp Dewpoint Dewpoint Depression Visibility Wind Speed Wind Dir Waves Ship Positions
date/time (UTC)wind fromknots sea level pressurealtimeterstation pressurevisibilityair tempwater tempwave heightnotes
2014-Oct-31 12:40 127 5 gusting 11 17.8
2014-Oct-31 12:25 162 5 gusting 10 17.8
2014-Oct-31 12:10 222 6 gusting 13 17.8
2014-Oct-31 11:55 120 7 gusting 13 17.8
2014-Oct-31 11:40 128 7 gusting 13 17.8
2014-Oct-31 11:25 167 6 gusting 13 18.3
2014-Oct-31 11:10 188 4 gusting 13 18.3
2014-Oct-31 10:55 162 6 gusting 10 18.3
2014-Oct-31 10:40 144 5 gusting 14 18.3
2014-Oct-31 10:25 188 6 gusting 13 18.9
2014-Oct-31 10:10 148 6 gusting 13 19.4
2014-Oct-31 09:55 151 6 gusting 13 20.0
2014-Oct-31 09:40 136 7 gusting 15 20.6
2014-Oct-31 09:25 197 9 gusting 17 20.6
2014-Oct-31 09:10 207 8 gusting 17 21.1
2014-Oct-31 08:55 167 10 gusting 26 21.1
2014-Oct-31 08:40 190 9 gusting 19 21.7
2014-Oct-31 08:25 212 12 gusting 19 21.7
2014-Oct-31 08:10 167 8 gusting 17 21.7
2014-Oct-31 07:55 202 6 gusting 19 22.2
2014-Oct-31 07:40 204 9 gusting 19 22.8
2014-Oct-31 07:25 188 10 gusting 21 23.3
2014-Oct-31 07:10 176 13 gusting 24 24.4
2014-Oct-31 06:55 204 12 gusting 22 25.6
2014-Oct-31 06:40 162 9 gusting 25 26.7
2014-Oct-31 06:24 159 10 gusting 24 27.8
2014-Oct-31 06:09 177 9 gusting 20 27.8
2014-Oct-31 05:54 186 8 gusting 19 28.3
2014-Oct-31 05:39 249 6 gusting 13 36.1
2014-Oct-31 05:25 294 11 gusting 16 36.1
2014-Oct-31 05:09 300 11 gusting 18 36.1
2014-Oct-31 04:54 283 6 gusting 15 36.7
2014-Oct-31 04:39 330 9 gusting 13 37.2
2014-Oct-31 04:24 309 13 gusting 18 36.7
2014-Oct-31 04:09 348 10 gusting 25 37.8
2014-Oct-31 03:54 294 8 gusting 19 37.2
2014-Oct-31 03:39 309 14 gusting 24 37.2
2014-Oct-31 03:24 308 11 gusting 24 37.2
2014-Oct-31 03:09 302 13 gusting 20 36.7
2014-Oct-31 02:54 300 13 gusting 22 37.2
2014-Oct-31 02:39 337 12 gusting 24 36.7
2014-Oct-31 02:24 330 11 gusting 23 36.7
2014-Oct-31 02:09 278 13 gusting 26 36.1
2014-Oct-31 01:54 311 13 gusting 27 35.6
2014-Oct-31 01:39 309 12 gusting 24 35.0
2014-Oct-31 01:24 312 13 gusting 22 34.4
2014-Oct-31 01:09 304 14 gusting 24 35.0
2014-Oct-31 00:54 323 9 gusting 22 34.4
2014-Oct-31 00:39 319 11 gusting 18 34.4
2014-Oct-31 00:24 342 9 gusting 15 33.3
2014-Oct-31 00:10 321 8 gusting 14 32.2
2014-Oct-30 23:53 305 9 gusting 15 30.0
2014-Oct-30 23:38 349 7 gusting 14 29.4
2014-Oct-30 23:23 300 11 gusting 16 29.4
2014-Oct-30 23:08 339 11 gusting 17 28.9
2014-Oct-30 22:53 328 12 gusting 19 30.6
2014-Oct-30 22:38 325 13 gusting 19 30.0
2014-Oct-30 22:23 351 9 gusting 14 27.8
2014-Oct-30 22:08 314 4 gusting 7 25.6
2014-Oct-30 21:53 305 4 gusting 7 23.3
2014-Oct-30 21:38 309 3 gusting 6 21.7
2014-Oct-30 21:23 302 5 gusting 6 20.0
2014-Oct-30 21:08 296 3 gusting 6 18.9
2014-Oct-30 20:53 297 2 gusting 3 17.8
2014-Oct-30 20:38 293 0 gusting 1 16.7
2014-Oct-30 20:23 294 15.6
2014-Oct-30 20:08 293 0 gusting 1 15.0
2014-Oct-30 19:53 294 0 gusting 1 15.0
2014-Oct-30 19:38 300 15.6
2014-Oct-30 19:23 300 15.6
2014-Oct-30 19:08 300 16.1
2014-Oct-30 18:52 300 16.1
2014-Oct-30 18:37 300 15.6
2014-Oct-30 18:22 300 15.0
2014-Oct-30 18:07 300 15.6
2014-Oct-30 17:52 300 15.6
2014-Oct-30 17:37 300 16.1
2014-Oct-30 17:22 300 16.1
2014-Oct-30 17:07 300 16.1
2014-Oct-30 16:52 300 0 gusting 1 16.1
2014-Oct-30 16:37 300 0 gusting 1 15.6
2014-Oct-30 16:22 300 0 gusting 1 15.0
2014-Oct-30 16:07 300 0 gusting 2 15.0
2014-Oct-30 15:52 300 14.4
2014-Oct-30 15:37 300 0 gusting 0 13.9
2014-Oct-30 15:22 300 0 gusting 0 14.4
2014-Oct-30 15:07 300 15.0
2014-Oct-30 14:52 300 15.6
2014-Oct-30 14:37 300 15.6
2014-Oct-30 14:22 300 15.6
2014-Oct-30 14:07 300 16.1
2014-Oct-30 13:37 300 16.7
2014-Oct-30 13:07 300 0 gusting 2 16.7
2014-Oct-30 12:52 300 0 gusting 1 17.2
2014-Oct-30 12:36 278 17.2
2014-Oct-30 12:21 278 17.2
2014-Oct-30 12:06 278 17.8
2014-Oct-30 11:51 278 18.3
2014-Oct-30 11:36 160 18.3
2014-Oct-30 11:21 160 18.9
2014-Oct-30 11:06 160 19.4
2014-Oct-30 10:51 159 19.4
2014-Oct-30 10:36 190 0 gusting 2 19.4
2014-Oct-30 10:21 225 0 gusting 4 19.4
2014-Oct-30 10:06 201 2 gusting 6 19.4
2014-Oct-30 09:51 204 0 gusting 3 19.4
2014-Oct-30 09:36 187 2 gusting 5 20.0
2014-Oct-30 09:21 167 3 gusting 6 20.0
2014-Oct-30 09:06 153 3 gusting 7 20.0
2014-Oct-30 08:51 173 4 gusting 6 20.6
2014-Oct-30 08:36 179 5 gusting 9 21.1
2014-Oct-30 08:21 170 5 gusting 9 21.1
2014-Oct-30 08:06 153 5 gusting 10 22.2
2014-Oct-30 07:51 154 4 gusting 8 23.3
2014-Oct-30 07:36 193 4 gusting 6 25.0
2014-Oct-30 07:21 126 2 gusting 9 25.6
2014-Oct-30 07:06 101 4 gusting 7 25.6
2014-Oct-30 06:51 141 4 gusting 7 25.0
2014-Oct-30 06:36 098 5 gusting 8 25.6
2014-Oct-30 06:21 108 3 gusting 9 25.6
2014-Oct-30 06:06 140 5 gusting 7 27.2
2014-Oct-30 05:51 135 6 gusting 9 28.3
2014-Oct-30 05:36 143 4 gusting 6 28.9
2014-Oct-30 05:21 143 5 gusting 8 28.9
2014-Oct-30 05:06 120 3 gusting 8 28.3
2014-Oct-30 04:51 117 4 gusting 9 27.8
2014-Oct-30 04:36 129 5 gusting 8 27.8
2014-Oct-30 04:21 127 4 gusting 8 27.2
2014-Oct-30 04:06 126 4 gusting 8 27.2
2014-Oct-30 03:51 102 3 gusting 7 26.7
2014-Oct-30 03:36 142 3 gusting 7 25.6
2014-Oct-30 03:21 125 4 gusting 10 25.0
2014-Oct-30 03:05 109 3 gusting 6 24.4
2014-Oct-30 02:50 153 3 gusting 7 23.9
2014-Oct-30 02:35 105 5 gusting 7 23.9
2014-Oct-30 02:20 095 3 gusting 6 23.3
2014-Oct-30 02:05 112 4 gusting 7 22.8
2014-Oct-30 01:50 139 2 gusting 8 22.2
2014-Oct-30 01:35 165 0 gusting 7 21.7
2014-Oct-30 01:20 151 3 gusting 6 21.7
2014-Oct-30 01:05 154 4 gusting 8 21.1
2014-Oct-30 00:50 197 4 gusting 8 21.1
2014-Oct-30 00:35 183 4 gusting 10 21.1
2014-Oct-30 00:20 207 4 gusting 6 20.6
2014-Oct-30 00:05 201 3 gusting 6 20.0
2014-Oct-29 23:35 156 3 gusting 7 19.4
2014-Oct-29 23:20 176 5 gusting 9 19.4
2014-Oct-29 23:05 148 3 gusting 6 18.9
2014-Oct-29 22:05 148 2 gusting 6 17.2
2014-Oct-29 21:50 186 4 gusting 8 17.2
2014-Oct-29 21:35 238 3 gusting 5 16.1
2014-Oct-29 21:20 187 2 gusting 4 15.0
2014-Oct-29 20:50 230 3 gusting 5 13.3
2014-Oct-29 20:35 255 0 gusting 3 12.8
2014-Oct-29 20:20 252 0 gusting 2 12.2
2014-Oct-29 20:05 240 0 gusting 2 12.2
2014-Oct-29 19:51 252 0 gusting 2 12.2
2014-Oct-29 19:35 252 11.7
2014-Oct-29 19:20 238 11.7
2014-Oct-29 19:05 238 12.8
2014-Oct-29 18:50 232 0 gusting 2 12.8
2014-Oct-29 18:35 222 0 gusting 3 13.3
2014-Oct-29 18:19 238 0 gusting 3 13.3
2014-Oct-29 17:49 250 0 gusting 3 13.3
2014-Oct-29 17:34 277 12.8
2014-Oct-29 17:19 278 0 gusting 1 12.8
2014-Oct-29 17:04 235 0 gusting 0 13.3
2014-Oct-29 16:49 235 13.9
2014-Oct-29 16:34 235 14.4
2014-Oct-29 16:19 235 0 gusting 4 14.4
2014-Oct-29 16:04 255 1 gusting 2 14.4
2014-Oct-29 15:49 255 1 gusting 3 14.4
2014-Oct-29 15:34 256 0 gusting 3 14.4
2014-Oct-29 15:19 257 1 gusting 2 14.4
2014-Oct-29 15:04 264 1 14.4
2014-Oct-29 14:49 231 2 gusting 6 14.4
2014-Oct-29 14:34 229 0 gusting 2 14.4
2014-Oct-29 14:19 240 0 gusting 5 15.0
2014-Oct-29 14:04 228 2 gusting 5 15.0
2014-Oct-29 13:49 235 1 gusting 2 15.6
2014-Oct-29 13:34 213 0 gusting 4 16.1
2014-Oct-29 13:19 185 2 gusting 5 16.1
2014-Oct-29 13:04 176 1 gusting 5 16.7